Location: Newark
(30.9503°N, 79.5686°E)
Time: 15:25:46
(UTC+00:00)

ISS - Visible Passes

Search period start: 13 November 2019 00:00
Search period end: 23 November 2019 00:00
Orbit: 412 x 421 km, 51.6° (Epoch: 13 November)

Date Brightness Start Highest point End Pass type
(mag) Time Alt. Az. Time Alt. Az. Time Alt. Az.
13 Nov -3.8 00:09:43 16° NW 00:12:16 83° NE 00:15:37 10° SE visible
13 Nov -2.7 23:23:47 40° NE 23:23:53 40° NE 23:27:03 10° ESE visible
14 Nov -0.2 22:37:56 11° E 22:37:56 11° E 22:38:06 10° E visible
15 Nov -2.4 00:10:52 20° W 00:12:04 25° SW 00:14:51 10° S visible
15 Nov -2.3 23:25:05 30° S 23:25:05 30° S 23:27:01 10° SSE visible
17 Nov -1.1 13:34:21 10° SSW 13:34:51 13° S 13:34:51 13° S visible
18 Nov -1.9 12:46:55 10° SSE 12:49:02 16° SE 12:49:02 16° SE visible
19 Nov -2.4 13:33:47 10° SW 13:36:04 39° WSW 13:36:04 39° WSW visible
20 Nov -3.7 12:45:23 10° SSW 12:48:40 60° SE 12:50:03 31° ENE visible
21 Nov -1.5 13:34:28 10° W 13:36:53 20° NW 13:36:53 20° NW visible
22 Nov -2.4 12:45:21 10° WSW 12:48:26 34° NW 12:50:40 16° NNE visible
